Location: Emporia
(38.4040°N, 96.1810°W)
Time: 10:33:12
(UTC-05:00)

ISS - Visible Passes

Search period start: 31 July 2014 00:00
Search period end: 10 August 2014 00:00
Orbit: 411 x 419 km, 51.6° (Epoch: 31 July)

Date Brightness Start Highest point End Pass type
(mag) Time Alt. Az. Time Alt. Az. Time Alt. Az.
31 Jul -0.1 04:20:06 10° NNW 04:21:57 14° NNE 04:23:47 10° NE visible
31 Jul -2.7 05:55:52 10° NW 05:59:13 62° NE 06:02:32 10° ESE visible
01 Aug 0.2 03:31:46 10° N 03:32:49 11° NNE 03:33:52 10° NNE visible
01 Aug -1.6 05:07:10 10° NW 05:10:19 36° NNE 05:13:27 10° ESE visible
01 Aug -1.7 21:48:46 10° S 21:50:14 19° SSE 21:50:14 19° SSE visible
02 Aug -0.8 04:18:32 10° NNW 04:21:20 24° NNE 04:24:08 10° E visible
02 Aug -2.8 05:54:58 10° WNW 05:58:10 41° SW 06:01:20 10° SSE visible
02 Aug -1.4 21:01:08 10° SSE 21:02:51 14° SE 21:04:34 10° E visible
02 Aug -2.7 22:35:55 10° WSW 22:39:12 57° NW 22:41:08 22° NE visible
03 Aug -0.3 03:29:59 10° NNW 03:32:18 17° NNE 03:34:37 10° ENE visible
03 Aug -3.4 05:06:00 10° NW 05:09:22 80° SW 05:12:43 10° SE visible
03 Aug -3.4 21:47:02 10° SW 21:50:20 78° SE 21:53:41 10° NE visible
03 Aug -0.3 23:25:05 10° WNW 23:27:24 17° NNW 23:29:44 10° NNE visible
04 Aug -2.6 04:19:14 32° NNW 04:20:30 55° NE 04:23:48 10° ESE visible
04 Aug -1.5 05:55:01 10° W 05:56:52 14° SW 05:58:44 10° SSW visible
04 Aug -2.8 20:58:25 10° SSW 21:01:32 40° SE 21:04:41 10° ENE visible
04 Aug -0.8 22:35:33 10° W 22:38:21 24° NNW 22:41:09 10° NNE visible
05 Aug -1.2 05:10:18 14° S 05:10:18 14° S 05:11:00 10° S visible
05 Aug -1.7 21:46:14 10° WSW 21:49:21 37° NNW 21:52:29 10° NE visible
05 Aug 0.1 23:25:46 10° NNW 23:26:49 11° NNW 23:27:52 10° N visible
06 Aug -2.8 20:57:07 10° WSW 21:00:24 64° NW 21:03:44 10° NE visible
06 Aug -0.1 22:35:49 10° NW 22:37:39 14° NNW 22:39:30 10° NNE visible
07 Aug -0.4 21:46:07 10° WNW 21:48:32 18° NNW 21:50:58 10° NNE visible
08 Aug -0.9 20:56:36 10° W 20:59:27 26° NNW 21:02:20 10° NNE visible
09 Aug -0.1 21:46:39 10° NW 21:47:52 12° NNW 21:49:06 10° N visible
